Buffalo, SD

8:06 AM MDT on September 20, 2017 (GMT -0600)
Buffalo

Weather History for K2WX - May, 2013

Change the Weather History Date:

Friday, May 10, 2013

  Actual Average Record
Temperature  
Mean Temperature 57 °F 52 °F  
Max Temperature 74 °F 64 °F 77 °F (1997)
Min Temperature 39 °F 40 °F 30 °F (1999)
Degree Days  
Heating Degree Days 8 13  
Month to date heating degree days 155 148  
Since 1 July heating degree days 7379 7601  
Cooling Degree Days 0 0  
Month to date cooling degree days 0 0  
Year to date cooling degree days 0 0  
Growing Degree Days 6 (Base 50)    
Moisture  
Dew Point 31 °F    
Average Humidity 51    
Maximum Humidity 79    
Minimum Humidity 23    
Precipitation  
Precipitation 0.00 in 0.06 in 0.83 in (1999)
Month to date precipitation 0.04 0.52  
Year to date precipitation 1.68 3.41  
Sea Level Pressure  
Sea Level Pressure 30.12 in    
Wind  
Wind Speed 14 mph (NNW)    
Max Wind Speed 45 mph    
Max Gust Speed 52 mph    
T = Trace of Precipitation, MM = Missing Value Source: NWS Daily Summary

Daily Weather History Graph

Daily Weather History Graph

Search for Another Location

Airport or City:

Trip Planner

Search our weather history database for the weather conditions in past years. The results will help you decide how hot, cold, wet, or windy it might be!

Date:

Astronomy

May. 10, 2013 Rise Set
Actual Time 5:29 AM MDT 8:12 PM MDT
Civil Twilight 4:55 AM MDT 8:46 PM MDT
Nautical Twilight 4:12 AM MDT 9:30 PM MDT
Astronomical Twilight 3:22 AM MDT 10:20 PM MDT
Moon 5:54 AM MDT (5/10) 9:05 PM MDT (5/10)
Length of Visible Light 15h 51m
Length of Day
14h 43m
New Moon, 1% of the Moon is Illuminated
May 10
New Moon
May 17
First Quarter
May 24
Full
May 31
Last Quarter
Jun 8
New

Hourly Weather History & Observations

Time (MDT) Temp. Windchill Dew Point Humidity Pressure Visibility Wind Dir Wind Speed Gust Speed Precip Events Conditions
12:56 AM 45.0 °F 41.2 °F 30.9 °F 58% 30.13 in - ESE 6.9 mph - N/A   Unknown
1:56 AM 44.1 °F 42.5 °F 30.0 °F 58% 30.12 in - SE 3.5 mph - N/A   Unknown
2:56 AM 44.1 °F 41.5 °F 30.9 °F 60% 30.09 in - South 4.6 mph - N/A   Unknown
3:56 AM 43.0 °F 41.3 °F 32.0 °F 65% 30.08 in - SSW 3.5 mph - N/A   Unknown
4:56 AM 43.0 °F 39.5 °F 32.0 °F 65% 30.06 in - South 5.8 mph - N/A   Unknown
5:56 AM 39.9 °F 34.5 °F 33.1 °F 77% 30.05 in - SSE 8.1 mph - N/A   Unknown
6:56 AM 39.9 °F 37.8 °F 34.0 °F 79% 30.06 in - SW 3.5 mph - N/A   Unknown
7:56 AM 48.0 °F - 37.9 °F 68% 30.06 in - Calm Calm - N/A   Unknown
8:56 AM 57.0 °F - 45.0 °F 64% 30.05 in - West 4.6 mph - N/A   Unknown
9:56 AM 64.9 °F - 45.0 °F 48% 30.03 in - NNW 9.2 mph - N/A   Unknown
10:56 AM 70.0 °F - 39.0 °F 32% 30.03 in - NNW 15.0 mph 33.4 mph N/A   Unknown
11:56 AM 73.9 °F - 33.1 °F 22% 30.02 in - North 21.9 mph 32.2 mph N/A   Unknown
12:56 PM 73.0 °F - 36.0 °F 26% 30.02 in - North 26.5 mph 34.5 mph N/A   Unknown
1:56 PM 66.9 °F - 39.9 °F 37% 30.05 in - North 34.5 mph 49.5 mph N/A   Unknown
2:56 PM 68.0 °F - 37.0 °F 32% 30.08 in - North 31.1 mph 38.0 mph N/A   Unknown
3:56 PM 66.0 °F - 35.1 °F 32% 30.10 in - North 29.9 mph 40.3 mph N/A   Unknown
4:56 PM 59.0 °F - 30.0 °F 33% 30.15 in - North 28.8 mph 35.7 mph N/A   Unknown
5:56 PM 60.1 °F - 25.0 °F 26% 30.16 in - NNW 21.9 mph 32.2 mph N/A   Unknown
6:56 PM 57.9 °F - 21.0 °F 24% 30.19 in - North 25.3 mph 32.2 mph N/A   Unknown
7:56 PM 54.0 °F - 17.1 °F 23% 30.22 in - NNW 19.6 mph - N/A   Unknown
8:56 PM 48.9 °F - 19.9 °F 32% 30.25 in - NNW 10.4 mph - N/A   Unknown
9:56 PM 48.0 °F - 21.0 °F 34% 30.26 in - North 12.7 mph - N/A   Unknown
10:56 PM 43.0 °F 37.2 °F 21.0 °F 42% 30.27 in - NNW 10.4 mph - N/A   Unknown
11:56 PM 42.1 °F 37.7 °F 21.0 °F 43% 30.28 in - NNW 6.9 mph - N/A   Unknown